When you browse on this site, cookies collect data to enhance your experience and personalize the content and advertising you see.
Visit our Privacy Policy to learn more. By continuing to use the site, you agree to this use of cookies and data.
  • en Suisse
  • Liste des pays
  • À 7 jours
  • Température de l'eau
  • Carte satellitaire
  • Carte météo
  • Widgets météo
  • user-avatar
    Se connecter

    Météo par heure à Enilchek

    Ce jour, 21 Janvier, Lundi

    Heure Température Précipitation Vent Pression Humidité
    00:00 -16°C° 0 mm 2 m/s 503 mmHg 79%
    01:00 -16°C° 0 mm 2 m/s 503 mmHg 78%
    02:00 -15°C° 0 mm 2 m/s 503 mmHg 77%
    03:00 -15°C° 0 mm 2 m/s 503 mmHg 78%
    04:00 -15°C° 0 mm 2 m/s 503 mmHg 79%
    05:00 -16°C° 0 mm 2 m/s 503 mmHg 76%
    06:00 -16°C° 0 mm 2 m/s 504 mmHg 75%
    07:00 -14°C° 0 mm 1 m/s 504 mmHg 75%
    08:00 -13°C° 0 mm 1 m/s 504 mmHg 74%
    09:00 -12°C° 0 mm 1 m/s 505 mmHg 69%
    10:00 -11°C° 0 mm 1 m/s 506 mmHg 63%
    11:00 -10°C° 0 mm 1 m/s 507 mmHg 56%
    12:00 -9°C° 0 mm 1 m/s 507 mmHg 57%
    13:00 -9°C° 0 mm 1 m/s 507 mmHg 58%
    14:00 -9°C° 0 mm 1 m/s 507 mmHg 59%
    15:00 -9°C° 0.1 mm 1 m/s 507 mmHg 63%
    16:00 -12°C° 0.1 mm 2 m/s 507 mmHg 66%
    17:00 -13°C° 0.1 mm 2 m/s 507 mmHg 70%
    18:00 -13°C° 0 mm 2 m/s 507 mmHg 72%
    19:00 -14°C° 0 mm 2 m/s 507 mmHg 74%
    20:00 -14°C° 0 mm 2 m/s 507 mmHg 76%
    21:00 -15°C° 0 mm 2 m/s 506 mmHg 76%
    22:00 -15°C° 0 mm 2 m/s 506 mmHg 76%
    23:00 -16°C° 0 mm 2 m/s 506 mmHg 76%

    Demain, 22 Janvier, Mardi

    Heure Température Précipitation Vent Pression Humidité
    00:00 -16°C° 0 mm 2 m/s 505 mmHg 74%
    01:00 -15°C° 0 mm 1 m/s 505 mmHg 73%
    02:00 -15°C° 0 mm 1 m/s 505 mmHg 71%
    03:00 -15°C° 0 mm 1 m/s 504 mmHg 69%
    04:00 -15°C° 0 mm 1 m/s 504 mmHg 67%
    05:00 -15°C° 0 mm 1 m/s 504 mmHg 65%
    06:00 -15°C° 0 mm 1 m/s 504 mmHg 64%
    07:00 -14°C° 0 mm 1 m/s 504 mmHg 62%
    08:00 -14°C° 0 mm 1 m/s 505 mmHg 61%
    09:00 -15°C° 0 mm 2 m/s 505 mmHg 61%
    10:00 -13°C° 0 mm 2 m/s 506 mmHg 62%
    11:00 -12°C° 0 mm 2 m/s 506 mmHg 63%
    12:00 -12°C° 0 mm 2 m/s 506 mmHg 63%
    13:00 -12°C° 0 mm 2 m/s 505 mmHg 63%
    14:00 -10°C° 0 mm 2 m/s 505 mmHg 62%
    15:00 -12°C° 0 mm 2 m/s 505 mmHg 64%
    16:00 -13°C° 0 mm 2 m/s 504 mmHg 65%
    17:00 -14°C° 0 mm 2 m/s 504 mmHg 66%
    18:00 -15°C° 0 mm 2 m/s 504 mmHg 68%
    19:00 -15°C° 0 mm 2 m/s 503 mmHg 70%
    20:00 -16°C° 0 mm 2 m/s 503 mmHg 72%
    21:00 -15°C° 0 mm 2 m/s 503 mmHg 72%
    22:00 -13°C° 0 mm 1 m/s 503 mmHg 72%
    23:00 -13°C° 0 mm 1 m/s 503 mmHg 72%

    Après-demain, 23 Janvier, Mercredi

    Heure Température Précipitation Vent Pression Humidité
    00:00 -13°C° 0 mm 1 m/s 503 mmHg 73%
    01:00 -13°C° 0 mm 1 m/s 503 mmHg 74%
    02:00 -13°C° 0 mm 1 m/s 503 mmHg 74%
    03:00 -14°C° 0 mm 1 m/s 503 mmHg 75%
    04:00 -14°C° 0 mm 1 m/s 503 mmHg 75%
    05:00 -14°C° 0 mm 1 m/s 502 mmHg 75%
    06:00 -14°C° 0 mm 1 m/s 503 mmHg 74%
    07:00 -14°C° 0 mm 1 m/s 503 mmHg 72%
    08:00 -14°C° 0 mm 1 m/s 504 mmHg 70%
    09:00 -12°C° 0 mm 1 m/s 504 mmHg 67%
    10:00 -11°C° 0 mm 0 m/s 505 mmHg 63%
    11:00 -10°C° 0 mm 0 m/s 506 mmHg 60%
    12:00 -10°C° 0 mm 1 m/s 506 mmHg 61%
    13:00 -9°C° 0 mm 1 m/s 506 mmHg 62%
    14:00 -9°C° 0 mm 1 m/s 506 mmHg 63%
    15:00 -10°C° 0 mm 1 m/s 506 mmHg 66%
    16:00 -11°C° 0 mm 1 m/s 505 mmHg 70%
    17:00 -12°C° 0 mm 1 m/s 505 mmHg 73%
    18:00 -12°C° 0 mm 1 m/s 505 mmHg 74%
    19:00 -13°C° 0 mm 1 m/s 505 mmHg 75%
    20:00 -13°C° 0 mm 1 m/s 505 mmHg 76%
    21:00 -13°C° 0 mm 1 m/s 505 mmHg 75%
    22:00 -14°C° 0 mm 1 m/s 505 mmHg 73%
    23:00 -14°C° 0 mm 1 m/s 505 mmHg 72%

    24 Janvier, Jeudi

    Heure Température Précipitation Vent Pression Humidité
    00:00 -14°C° 0 mm 1 m/s 505 mmHg 70%
    01:00 -14°C° 0 mm 1 m/s 505 mmHg 68%
    02:00 -14°C° 0 mm 1 m/s 505 mmHg 66%
    03:00 -17°C° 0 mm 2 m/s 505 mmHg 64%
    04:00 -17°C° 0 mm 2 m/s 505 mmHg 62%
    05:00 -17°C° 0 mm 2 m/s 505 mmHg 60%
    06:00 -17°C° 0 mm 2 m/s 505 mmHg 58%
    07:00 -17°C° 0 mm 2 m/s 506 mmHg 56%
    08:00 -17°C° 0 mm 2 m/s 506 mmHg 55%
    09:00 -14°C° 0 mm 1 m/s 507 mmHg 53%
    10:00 -13°C° 0 mm 1 m/s 508 mmHg 51%
    11:00 -11°C° 0 mm 1 m/s 508 mmHg 49%
    12:00 -11°C° 0 mm 1 m/s 508 mmHg 51%
    13:00 -11°C° 0 mm 1 m/s 508 mmHg 53%
    14:00 -11°C° 0 mm 1 m/s 508 mmHg 55%
    15:00 -12°C° 0 mm 1 m/s 508 mmHg 58%
    16:00 -13°C° 0 mm 1 m/s 508 mmHg 61%
    17:00 -13°C° 0 mm 1 m/s 508 mmHg 65%
    18:00 -14°C° 0 mm 1 m/s 508 mmHg 64%
    19:00 -14°C° 0 mm 1 m/s 508 mmHg 63%
    20:00 -14°C° 0 mm 1 m/s 509 mmHg 62%
    21:00 -15°C° 0 mm 1 m/s 509 mmHg 62%
    22:00 -15°C° 0 mm 1 m/s 508 mmHg 61%
    23:00 -15°C° 0 mm 1 m/s 508 mmHg 60%

    25 Janvier, Vendredi

    Heure Température Précipitation Vent Pression Humidité
    00:00 -16°C° 0 mm 1 m/s 508 mmHg 59%
    01:00 -16°C° 0 mm 1 m/s 508 mmHg 58%
    02:00 -16°C° 0 mm 1 m/s 507 mmHg 58%
    03:00 -17°C° 0 mm 1 m/s 507 mmHg 57%
    04:00 -17°C° 0 mm 1 m/s 507 mmHg 56%
    05:00 -17°C° 0 mm 1 m/s 507 mmHg 55%
    06:00 -17°C° 0 mm 1 m/s 508 mmHg 57%
    07:00 -17°C° 0 mm 1 m/s 508 mmHg 59%
    08:00 -17°C° 0 mm 1 m/s 509 mmHg 61%
    09:00 -16°C° 0 mm 1 m/s 509 mmHg 61%
    10:00 -15°C° 0 mm 1 m/s 509 mmHg 61%
    11:00 -14°C° 0 mm 1 m/s 510 mmHg 61%
    12:00 -14°C° 0 mm 1 m/s 510 mmHg 60%
    13:00 -14°C° 0 mm 1 m/s 509 mmHg 60%
    14:00 -13°C° 0 mm 1 m/s 509 mmHg 59%
    15:00 -14°C° 0 mm 1 m/s 509 mmHg 62%
    16:00 -15°C° 0 mm 1 m/s 509 mmHg 64%
    17:00 -16°C° 0 mm 1 m/s 508 mmHg 66%
    18:00 -17°C° 0 mm 1 m/s 508 mmHg 64%
    19:00 -17°C° 0 mm 1 m/s 508 mmHg 62%
    20:00 -17°C° 0 mm 1 m/s 508 mmHg 60%
    21:00 -18°C° 0 mm 1 m/s 508 mmHg 57%
    22:00 -18°C° 0 mm 1 m/s 508 mmHg 53%
    23:00 -18°C° 0 mm 1 m/s 508 mmHg 50%

    26 Janvier, Samedi

    Heure Température Précipitation Vent Pression Humidité
    00:00 -18°C° 0 mm 1 m/s 507 mmHg 47%
    01:00 -19°C° 0 mm 1 m/s 507 mmHg 44%
    02:00 -21°C° 0 mm 2 m/s 507 mmHg 40%
    03:00 -21°C° 0 mm 2 m/s 506 mmHg 37%
    04:00 -19°C° 0 mm 1 m/s 506 mmHg 34%
    05:00 -19°C° 0 mm 1 m/s 506 mmHg 31%
    06:00 -21°C° 0 mm 2 m/s 506 mmHg 29%
    07:00 -21°C° 0 mm 2 m/s 507 mmHg 26%
    08:00 -21°C° 0 mm 2 m/s 507 mmHg 24%
    09:00 -19°C° 0 mm 2 m/s 507 mmHg 26%
    10:00 -18°C° 0 mm 2 m/s 508 mmHg 28%
    11:00 -16°C° 0 mm 2 m/s 509 mmHg 30%
    12:00 -15°C° 0 mm 2 m/s 509 mmHg 30%
    13:00 -15°C° 0 mm 2 m/s 508 mmHg 30%
    14:00 -15°C° 0 mm 2 m/s 508 mmHg 29%
    15:00 -16°C° 0 mm 2 m/s 508 mmHg 28%
    16:00 -17°C° 0 mm 2 m/s 507 mmHg 26%
    17:00 -16°C° 0 mm 1 m/s 507 mmHg 24%
    18:00 -16°C° 0 mm 1 m/s 507 mmHg 21%
    19:00 -17°C° 0 mm 1 m/s 507 mmHg 19%
    20:00 -17°C° 0 mm 1 m/s 507 mmHg 17%
    21:00 -19°C° 0 mm 2 m/s 507 mmHg 16%
    22:00 -20°C° 0 mm 2 m/s 506 mmHg 15%
    23:00 -20°C° 0 mm 2 m/s 506 mmHg 14%
    Voir plus